Skip Page Navigation
NASA JPL Caltech
NASA Logo - Jet Propulsion Laboratory + View the NASA Portal
+ Center for Near-Earth Object Studies
JPL Home Earth Solar System Stars & Galaxies Technology
JPL Solar System Dynamics
BODIES ORBITS EPHEMERIDES TOOLS PHYSICAL DATA DISCOVERY FAQ SITE MAP
IMPORTANT: The SSD Announcement email list is now available. Major changes are coming in the near future, including possible hostname and/or URL changes. To be notified of such changes, subscribe to this email list.

Please visit this page for more details.


JPL Small-Body Database Browser
Search: [ help ]  
65821 De Curtis (1996 UC3)
Classification: Outer Main-belt Asteroid          SPK-ID: 2065821
Ephemeris | Orbit Diagram | Orbital Elements | Mission Design | Physical Parameters | Discovery Circumstances | Close-Approach Data ]

[ show orbit diagram ]
Orbital Elements at Epoch 2458600.5 (2019-Apr-27.0) TDB
Reference: JPL 22 (heliocentric ecliptic J2000)
 Element Value Uncertainty (1-sigma)   Units 
e .2373992246003766 4.4864e-08  
a 3.975663258230091 4.5055e-08 au
q 3.031843883454061 1.9913e-07 au
i 4.317070574126317 6.226e-06 deg
node 301.9171181498004 6.7671e-05 deg
peri 102.499931732528 6.9363e-05 deg
M 291.244520783862 1.6699e-05 deg
tp 2459153.490445643666
(2020-Oct-30.99044564)
0.00014141 TDB
period 2895.428301879876
7.93
4.9219e-05
1.348e-07
d
yr
n .1243339369744599 2.1135e-09 deg/d
Q 4.919482633006123 5.5751e-08 au
  Orbit Determination Parameters
   # obs. used (total)      625  
   data-arc span      14279 days (39.09 yr)  
   first obs. used      1980-11-01  
   last obs. used      2019-12-06  
   planetary ephem.      DE431  
   SB-pert. ephem.      SB431-N16  
   condition code      0  
   norm. resid. RMS      .49143  
   source      ORB  
   producer      Otto Matic  
   solution date      2019-Dec-14 06:57:15  

Additional Information
 Earth MOID = 2.0446 au 
 Jupiter MOID = .655917 au 
 T_jup = 3.002 
[ show covariance matrix ]

Ephemeris | Orbit Diagram | Orbital Elements | Mission Design | Physical Parameters | Discovery Circumstances | Close-Approach Data ]

Physical Parameter Table
Parameter Symbol Value Units Sigma Reference Notes
absolute magnitude H 13.5   n/a MPO493330  
diameter diameter 12.998 km 1.076 urn:nasa:pds:neowise_diameters_albedos::2.0[hildas] (http://adsabs.harvard.edu/abs/2012ApJ...744..197G)  
rotation period rot_per 6.44 h n/a LCDB (Rev. 2019-January); Warner et al., 2009 Result based on less than full coverage, so that the period may be wrong by 30 percent or so.
Published Reference List:
[Chang, C.K.; Ip, W.-H.; Lin, H.-W.; Cheng, Y.C.; et al. (2015) Astrophys. J. Supp. Ser. 219, A27.]
geometric albedo albedo 0.042   0.010 urn:nasa:pds:neowise_diameters_albedos::2.0[hildas] (http://adsabs.harvard.edu/abs/2012ApJ...744..197G)  

65821 De Curtis           Discovered 1996 Oct. 30 by V. S. Casulli at Colleverde.
Antonio De Curtis (1898-1967), nicknamed "Totò", was an Italian artist, comedian, film and theatre actor, writer, singer and songwriter.
NOTE: some special characters may not display properly (any characters within {} are an attempt to place the proper accent above a character)
Reference: MPC batch dated 2017-10-05Last Updated: 2018-10-01

[ show close-approach data ]
Alternate Designations
 1996 UC3 = 1980 VJ4 
Ephemeris | Orbit Diagram | Orbital Elements | Mission Design | Physical Parameters | Discovery Circumstances | Close-Approach Data ]
ABOUT SSD CREDITS/AWARDS PRIVACY/COPYRIGHT GLOSSARY LINKS
FirstGov 2020-Jan-20 18:19 UT
(server date/time)  
NASA Home Page
Site Manager:   Ryan S. Park
Webmaster  Alan B. Chamberlin